Powrót do katalogu

QIANFAN-21

AktywnyŁącznośćPO
NORAD 61554·PAYLOAD·🇨🇳 China

Wystrzelony Oct 15, 2024 z Taiyuan Satellite Launch Center

Loading…

Następne Przeloty (najbliższe 24 godziny)

TLE

ŚwieżeSource: Space-Track

Epoka: Sep 14, 2026, 20:43 UTC

1 61554U 24185C   26257.86320285  .00000488  00000-0  21047-3 0  9994
2 61554  88.9769  44.6439 0010834 172.0671 188.0695 14.22929827109238

Śledź QIANFAN-21 w czasie rzeczywistym z AllMySat

Download on the App Store